Weather History for Walden-Jackson Cnty AP, Walde, CO

Change the Weather History Date:

Saturday, December 28, 2013

  Actual Average (KSBS) Record (KSBS)
Temperature  
Mean Temperature 16 °F -  
Max Temperature 32 °F 26 °F 49 °F (1980)
Min Temperature 1 °F 1 °F -35 °F (1916)
Degree Days  
Heating Degree Days 48    
Moisture  
Dew Point 12 °F    
Average Humidity 76    
Maximum Humidity 93    
Minimum Humidity 60    
Precipitation  
Precipitation 0.00 in - - ()
Sea Level Pressure  
Sea Level Pressure 30.04 in    
Wind  
Wind Speed 5 mph (NE)    
Max Wind Speed 17 mph    
Max Gust Speed 24 mph    
Visibility 9 miles    
Events      
Averages and records for this station are not official NWS values.
T = Trace of Precipitation, MM = Missing Value Source: NWS Daily Summary

Daily Weather History Graph

Daily Weather History Graph

Search for Another Location

Airport:

Trip Planner

Search our weather history database for the weather conditions in past years. The results will help you decide how hot, cold, wet, or windy it might be!

Date:

Astronomy

Dec. 28, 2013 Rise Set
Actual Time 7:28 AM MST 4:45 PM MST
Civil Twilight 6:57 AM MST 5:16 PM MST
Nautical Twilight 6:23 AM MST 5:50 PM MST
Astronomical Twilight 5:49 AM MST 6:24 PM MST
Moon 3:07 AM MST (12/28) 1:38 PM MST (12/28)
Length of Visible Light 10h 18m
Length of Day
9h 16m
Waning Crescent, 18% of the Moon is Illuminated
Dec 28
Waning Crescent
Jan 1
New
Jan 7
First Quarter
Jan 15
Full
Jan 23
Last Quarter

Hourly Weather History & Observations

Time (MST) Temp. Windchill Dew Point Humidity Pressure Visibility Wind Dir Wind Speed Gust Speed Precip Events Conditions
12:14 AM 10.4 °F -0.4 °F 5.0 °F 79% 30.19 in 10.0 mi SE 6.9 mph - N/A   Clear
12:35 AM 10.4 °F 4.0 °F 6.8 °F 85% 30.18 in 10.0 mi SSE 3.5 mph - N/A   Clear
12:55 AM 8.6 °F -1.3 °F 3.2 °F 79% 30.17 in 10.0 mi SE 5.8 mph - N/A   Clear
1:15 AM 12.2 °F - 5.0 °F 73% 30.16 in 10.0 mi Calm Calm - N/A   Clear
1:35 AM 5.0 °F - -0.4 °F 78% 30.16 in 10.0 mi Calm Calm - N/A   Clear
1:54 AM 8.6 °F - 3.2 °F 79% 30.16 in 10.0 mi Calm Calm - N/A   Clear
2:15 AM 8.6 °F -1.3 °F 3.2 °F 79% 30.15 in 10.0 mi SE 5.8 mph - N/A   Clear
2:35 AM 8.6 °F - 3.2 °F 79% 30.15 in 10.0 mi Calm Calm - N/A   Clear
2:54 AM 3.2 °F - -0.4 °F 85% 30.14 in 10.0 mi Calm Calm - N/A   Clear
3:15 AM 8.6 °F -1.3 °F 5.0 °F 85% 30.13 in 10.0 mi ESE 5.8 mph - N/A   Clear
3:35 AM 8.6 °F 0.1 °F 5.0 °F 85% 30.13 in 10.0 mi ESE 4.6 mph - N/A   Clear
3:55 AM 12.2 °F 4.3 °F 6.8 °F 79% 30.11 in 10.0 mi SE 4.6 mph - N/A   Clear
4:15 AM 12.2 °F - 6.8 °F 79% 30.11 in 10.0 mi Calm Calm - N/A   Clear
4:35 AM 10.4 °F -0.4 °F 5.0 °F 79% 30.10 in 10.0 mi SE 6.9 mph - N/A   Clear
4:55 AM 3.2 °F - -2.2 °F 78% 30.09 in 7.0 mi Calm Calm - N/A   Clear
5:15 AM 1.4 °F -8.3 °F -4.0 °F 78% 30.10 in 10.0 mi NNW 4.6 mph - N/A   Clear
5:35 AM 5.0 °F - 1.4 °F 85% 30.10 in 10.0 mi Calm Calm - N/A   Clear
5:55 AM 3.2 °F -9.1 °F -0.4 °F 85% 30.08 in 10.0 mi SE 6.9 mph - N/A   Clear
6:15 AM 3.2 °F -6.2 °F -0.4 °F 85% 30.08 in 10.0 mi ESE 4.6 mph - N/A   Clear
6:35 AM 8.6 °F -1.3 °F 3.2 °F 79% 30.08 in 10.0 mi ESE 5.8 mph - N/A   Clear
6:55 AM 12.2 °F - 6.8 °F 79% 30.08 in 10.0 mi Calm Calm - N/A   Clear
7:15 AM 10.4 °F -0.4 °F 5.0 °F 79% 30.07 in 10.0 mi SE 6.9 mph - N/A   Clear
7:35 AM 8.6 °F -3.7 °F 3.2 °F 79% 30.06 in 10.0 mi SE 8.1 mph - N/A   Clear
7:55 AM 14.0 °F 0.5 °F 10.4 °F 86% 30.05 in 10.0 mi ESE 11.5 mph - N/A   Clear
8:15 AM 14.0 °F 2.9 °F 10.4 °F 86% 30.05 in 10.0 mi SE 8.1 mph - N/A   Clear
8:35 AM 17.6 °F 5.0 °F 12.2 °F 79% 30.04 in 10.0 mi South 11.5 mph - N/A   Clear
8:55 AM 12.2 °F 4.3 °F 6.8 °F 79% 30.05 in 10.0 mi WNW 4.6 mph - N/A   Clear
9:15 AM 19.4 °F 14.3 °F 12.2 °F 74% 30.05 in 10.0 mi SSW 3.5 mph - N/A   Clear
9:35 AM 19.4 °F 12.8 °F 12.2 °F 74% 30.05 in 10.0 mi South 4.6 mph - N/A   Clear
9:55 AM 21.2 °F - 12.2 °F 68% 30.04 in 10.0 mi Calm Calm - N/A   Clear
10:14 AM 21.2 °F 13.6 °F 12.2 °F 68% 30.03 in 10.0 mi South 5.8 mph - N/A   Clear
10:35 AM 23.0 °F - 14.0 °F 68% 30.03 in 10.0 mi Calm Calm - N/A   Clear
10:55 AM 30.2 °F 25.4 °F 19.4 °F 64% 30.02 in 10.0 mi East 4.6 mph - N/A   Clear
11:14 AM 30.2 °F 21.9 °F 17.6 °F 60% 30.02 in 10.0 mi East 9.2 mph - N/A   Clear
11:35 AM 30.2 °F 21.9 °F 17.6 °F 60% 30.01 in 10.0 mi ESE 9.2 mph - N/A   Clear
11:54 AM 30.2 °F 21.9 °F 19.4 °F 64% 30.00 in 10.0 mi East 9.2 mph - N/A   Clear
12:15 PM 32.0 °F 27.5 °F 19.4 °F 60% 29.99 in 10.0 mi ESE 4.6 mph - N/A   Clear
12:35 PM 32.0 °F - 19.4 °F 60% 29.98 in 10.0 mi Calm Calm - N/A   Clear
12:55 PM 30.2 °F 24.3 °F 19.4 °F 64% 29.98 in 10.0 mi NW 5.8 mph - N/A   Clear
1:15 PM 26.6 °F 22.6 °F 17.6 °F 69% 29.98 in 10.0 mi NNW 3.5 mph - N/A   Clear
1:35 PM 30.2 °F 26.7 °F 19.4 °F 64% 29.97 in 10.0 mi SE 3.5 mph - N/A   Clear
1:55 PM 32.0 °F 26.4 °F 19.4 °F 60% 29.96 in 10.0 mi SE 5.8 mph - N/A   Clear
2:15 PM 28.4 °F 23.3 °F 17.6 °F 64% 29.96 in 10.0 mi WNW 4.6 mph - N/A   Clear
2:35 PM 26.6 °F 22.6 °F 17.6 °F 69% 29.96 in 10.0 mi NW 3.5 mph - N/A   Clear
2:54 PM 26.6 °F 21.2 °F 17.6 °F 69% 29.96 in 10.0 mi West 4.6 mph - N/A   Clear
3:14 PM 26.6 °F 22.6 °F 17.6 °F 69% 29.96 in 10.0 mi West 3.5 mph - N/A   Clear
3:35 PM 28.4 °F - 17.6 °F 64% 29.96 in 10.0 mi Calm Calm - N/A   Scattered Clouds
3:55 PM 28.4 °F 24.6 °F 17.6 °F 64% 29.97 in 10.0 mi NNE 3.5 mph - N/A   Scattered Clouds
4:15 PM 28.4 °F - 17.6 °F 64% 29.97 in 10.0 mi Calm Calm - N/A   Clear
4:35 PM 24.8 °F 20.5 °F 17.6 °F 74% 29.96 in 10.0 mi ESE 3.5 mph - N/A   Mostly Cloudy
4:55 PM 26.6 °F 22.6 °F 17.6 °F 69% 29.97 in 10.0 mi East 3.5 mph - N/A   Overcast
5:15 PM 24.8 °F 19.1 °F 17.6 °F 74% 29.97 in 10.0 mi East 4.6 mph - N/A   Overcast
5:35 PM 24.8 °F 16.9 °F 17.6 °F 74% 29.98 in 10.0 mi North 6.9 mph - N/A   Overcast
5:55 PM 26.6 °F 15.7 °F 17.6 °F 69% 29.98 in 10.0 mi North 12.7 mph - N/A   Overcast
6:15 PM 24.8 °F 17.9 °F 15.8 °F 69% 29.98 in 10.0 mi North 5.8 mph - N/A   Overcast
6:35 PM 24.8 °F 16.1 °F 17.6 °F 74% 29.98 in 10.0 mi NNW 8.1 mph - N/A   Overcast
6:55 PM 24.8 °F 14.6 °F 17.6 °F 74% 29.98 in 10.0 mi North 10.4 mph - N/A   Overcast
7:14 PM 23.0 °F 9.2 °F 17.6 °F 80% 30.00 in 10.0 mi NNW 17.3 mph 20.7 mph N/A   Overcast
7:35 PM 23.0 °F 9.2 °F 19.4 °F 86% 30.00 in 10.0 mi NNW 17.3 mph 24.2 mph N/A   Overcast
7:54 PM 23.0 °F 10.1 °F 19.4 °F 86% 30.01 in 10.0 mi North 15.0 mph - N/A   Overcast
8:15 PM 23.0 °F 10.1 °F 19.4 °F 86% 30.02 in 5.0 mi North 15.0 mph - N/A   Overcast
8:35 PM 23.0 °F 11.1 °F 19.4 °F 86% 30.02 in 7.0 mi NNW 12.7 mph - N/A   Overcast
8:55 PM 21.2 °F 7.8 °F 19.4 °F 93% 30.02 in 10.0 mi NNW 15.0 mph - N/A   Overcast
9:14 PM 21.2 °F 7.3 °F 19.4 °F 93% 30.02 in 2.5 mi NNW 16.1 mph - N/A   Overcast
9:34 PM 21.2 °F 7.3 °F 19.4 °F 93% 30.02 in 4.0 mi NNW 16.1 mph - N/A   Overcast
9:55 PM 21.2 °F 8.9 °F 17.6 °F 86% 30.04 in 3.0 mi NNW 12.7 mph - N/A   Overcast
10:14 PM 19.4 °F 7.2 °F 17.6 °F 93% 30.04 in 1.8 mi NNW 11.5 mph - N/A   Overcast
10:35 PM 19.4 °F 7.2 °F 15.8 °F 86% 30.04 in 4.0 mi NNW 11.5 mph - N/A   Overcast
10:55 PM 19.4 °F 8.6 °F 15.8 °F 86% 30.05 in 4.0 mi NNW 9.2 mph - N/A   Overcast
11:15 PM 19.4 °F 6.0 °F 14.0 °F 80% 30.05 in 7.0 mi NNW 13.8 mph - N/A   Overcast
11:35 PM 19.4 °F 6.0 °F 14.0 °F 80% 30.05 in 10.0 mi NW 13.8 mph - N/A   Overcast
11:55 PM 19.4 °F 5.0 °F 14.0 °F 80% 30.06 in 10.0 mi NW 16.1 mph - N/A   Overcast